GW4608 Weather Reports


time (UTC)temp
C
wind
direction
speed
KPH
gust
KPH
rain 1hr
cm
rain 24hr
cm
rain mn
cm
humidity
%
barometer
mb
20260505114345 15 239 6.4 9.7 0.00 0.00 0.00 68 1012.7
20260505113841 14 202 1.6 3.2 0.00 0.00 0.00 70 1012.9
20260505113338 14 136 3.2 6.4 0.00 0.00 0.00 74 1012.7
20260505112834 13 155 0.0 0.0 0.00 0.00 0.00 80 1013.0
20260505112331 12 262 0.0 0.0 0.00 0.00 0.00 83 1012.9
20260505111827 11 263 0.0 1.6 0.00 0.00 0.00 83 1012.6
20260505111323 11 257 0.0 1.6 0.00 0.00 0.00 88 1012.8
20260505110819 11 291 0.0 1.6 0.00 0.00 0.00 87 1012.8
20260505110316 11 307 0.0 4.8 0.00 0.00 0.00 86 1012.5
20260505101751 11 221 0.0 1.6 0.00 0.00 0.00 81 1011.9
20260505101247 11 222 0.0 0.0 0.00 0.00 0.00 81 1011.8
20260505100743 12 229 0.0 1.6 0.00 0.00 0.00 80 1011.8
20260505100240 12 161 3.2 3.2 0.00 0.00 0.00 79 1011.8
20260505095735 12 200 0.0 3.2 0.00 0.00 0.00 78 1011.9
20260505095234 12 215 1.6 1.6 0.00 0.00 0.00 78 1011.9
20260505094729 12 190 1.6 1.6 0.00 0.00 0.00 78 1011.7
20260505094225 12 195 0.0 3.2 0.00 0.00 0.00 78 1011.8
20260505093721 12 179 3.2 3.2 0.00 0.00 0.00 78 1011.8
20260505093219 12 212 0.0 3.2 0.00 0.00 0.00 77 1011.9
20260505092716 12 180 1.6 3.2 0.00 0.00 0.00 78 1011.6
20260505092215 12 175 3.2 3.2 0.00 0.00 0.00 78 1011.6
20260505091711 12 158 3.2 3.2 0.00 0.00 0.00 77 1011.6
20260505091209 12 180 1.6 3.2 0.00 0.00 0.00 77 1011.5
20260505090707 12 206 3.2 3.2 0.00 0.00 0.00 78 1011.7
20260505090205 12 217 3.2 4.8 0.00 0.00 0.00 78 1012.0
20260505085702 12 157 3.2 3.2 0.00 0.00 0.00 77 1011.6
20260505085200 12 173 1.6 4.8 0.00 0.00 0.00 77 1011.6
20260505084657 12 190 1.6 3.2 0.00 0.00 0.00 77 1011.7
20260505084156 12 189 1.6 4.8 0.00 0.00 0.00 77 1011.6
20260505083653 12 209 4.8 4.8 0.00 0.00 0.00 78 1011.7
20260505083149 12 200 3.2 3.2 0.00 0.00 0.00 79 1011.7
20260505082645 12 207 1.6 3.2 0.00 0.00 0.00 81 1011.5
20260505082142 12 208 0.0 1.6 0.00 0.00 0.00 79 1011.3
20260505081638 13 207 1.6 3.2 0.00 0.00 0.00 77 1011.5
20260505081136 13 198 1.6 3.2 0.00 0.00 0.00 77 1011.4
20260505080632 13 210 3.2 3.2 0.00 0.00 0.00 79 1011.5
20260505080128 13 189 1.6 3.2 0.00 0.00 0.00 78 1011.3
20260505075625 13 188 1.6 3.2 0.00 0.00 0.00 77 1011.3
20260505075122 15 161 3.2 4.8 0.00 0.00 0.00 75 1011.2
20260505074619 15 240 8.0 11.3 0.00 0.00 0.00 67 1011.2
20260505074116 14 197 3.2 3.2 0.00 0.00 0.00 73 1011.3
20260505073613 14 242 3.2 6.4 0.00 0.00 0.00 72 1011.2
20260505073112 15 199 8.0 9.7 0.00 0.00 0.00 70 1011.4
20260505072607 13 236 6.4 11.3 0.00 0.00 0.00 71 1011.3
20260505072103 13 262 0.0 1.6 0.00 0.00 0.00 76 1011.3
20260505071559 13 195 1.6 3.2 0.00 0.00 0.00 77 1011.3
20260505071057 12 255 1.6 3.2 0.00 0.00 0.00 77 1011.1
20260505070554 12 160 1.6 3.2 0.00 0.00 0.00 76 1011.3
20260505070050 12 163 3.2 3.2 0.00 0.00 0.00 76 1011.1
20260505065546 12 181 1.6 3.2 0.00 0.00 0.00 77 1011.0
20260505065043 12 189 3.2 3.2 0.00 0.00 0.00 77 1011.0
20260505064540 12 198 1.6 1.6 0.00 0.00 0.00 78 1011.2
20260505064038 12 199 1.6 1.6 0.00 0.00 0.00 78 1011.2
20260505063535 11 200 1.6 1.6 0.00 0.00 0.00 81 1011.2
20260505063031 11 224 0.0 0.0 0.00 0.00 0.00 82 1011.3
20260505062528 11 235 0.0 0.0 0.00 0.00 0.00 82 1011.0
20260505062025 11 263 0.0 0.0 0.00 0.00 0.00 82 1011.1
20260505061523 11 262 1.6 1.6 0.00 0.00 0.00 81 1011.1
20260505061020 11 225 0.0 1.6 0.00 0.00 0.00 82 1011.3
20260505060518 11 224 0.0 1.6 0.00 0.00 0.00 81 1011.1
20260505060014 11 224 0.0 1.6 0.00 0.00 0.00 79 1011.2
20260505055509 11 209 1.6 1.6 0.00 0.00 0.00 79 1011.2
20260505055006 11 201 1.6 1.6 0.00 0.00 0.00 80 1011.3
20260505054504 11 204 1.6 1.6 0.00 0.00 0.00 80 1011.4
20260505054001 11 217 0.0 1.6 0.00 0.00 0.00 79 1011.4
20260505053458 12 218 1.6 1.6 0.00 0.00 0.00 79 1011.4
20260505052955 11 197 1.6 3.2 0.00 0.00 0.00 80 1011.2
20260505052452 11 289 0.0 0.0 0.00 0.00 0.00 82 1011.3
20260505051949 11 290 0.0 0.0 0.00 0.00 0.00 80 1011.4
20260505051446 12 179 0.0 0.0 0.00 0.00 0.00 78 1011.3
20260505050944 12 179 0.0 0.0 0.00 0.00 0.00 78 1011.2
20260505050442 12 179 0.0 1.6 0.00 0.00 0.00 79 1011.2
20260505041410 11 248 3.2 3.2 0.00 0.00 0.00 79 1011.3
20260505040907 12 224 0.0 1.6 0.00 0.00 0.00 78 1011.1
20260505040405 12 255 0.0 1.6 0.00 0.00 0.00 77 1011.3
20260505035901 12 248 1.6 3.2 0.00 0.00 0.00 77 1011.3
20260505035357 12 239 1.6 3.2 0.00 0.00 0.00 75 1011.2
20260505034855 12 249 1.6 3.2 0.00 0.00 0.00 74 1011.1
20260505034351 12 261 3.2 3.2 0.00 0.00 0.00 78 1011.4
20260505033848 12 244 0.0 1.6 0.00 0.00 0.00 77 1011.4
20260505033345 12 256 3.2 3.2 0.00 0.00 0.00 75 1011.3
20260505032843 12 261 1.6 3.2 0.00 0.00 0.00 75 1011.4
20260505032339 13 257 1.6 3.2 0.00 0.00 0.00 74 1011.3
20260505031836 13 276 1.6 3.2 0.00 0.00 0.00 70 1011.4
20260505031333 13 258 1.6 3.2 0.00 0.00 0.00 72 1011.3
20260505030830 13 250 3.2 3.2 0.00 0.00 0.00 75 1011.5
20260505030326 13 267 3.2 3.2 0.00 0.00 0.00 72 1011.3
20260505025822 13 203 1.6 3.2 0.00 0.00 0.00 74 1011.4
20260505025320 13 261 3.2 4.8 0.00 0.00 0.00 71 1011.5
20260505024818 13 255 1.6 3.2 0.00 0.00 0.00 72 1011.5
20260505024315 13 239 1.6 3.2 0.00 0.00 0.00 72 1011.5
20260505023812 13 211 1.6 3.2 0.00 0.00 0.00 70 1011.3
20260505023309 13 217 3.2 4.8 0.00 0.00 0.00 73 1011.7
20260505022806 13 257 3.2 3.2 0.00 0.00 0.00 72 1011.5
20260505022304 14 282 3.2 3.2 0.00 0.00 0.00 69 1011.5
20260505021800 14 258 3.2 3.2 0.00 0.00 0.00 68 1011.7
20260505021257 15 255 3.2 3.2 0.00 0.00 0.00 68 1011.7
20260505020753 15 263 1.6 4.8 0.00 0.00 0.00 65 1011.7
20260505020248 15 250 3.2 3.2 0.00 0.00 0.00 65 1011.5
20260505015746 16 265 3.2 3.2 0.00 0.00 0.00 63 1011.5
20260505015242 15 264 3.2 4.8 0.00 0.00 0.00 65 1011.5
20260505014739 15 264 3.2 3.2 0.00 0.00 0.00 63 1011.6
20260505014237 16 252 1.6 3.2 0.00 0.00 0.00 62 1011.3
20260505013733 16 260 3.2 3.2 0.00 0.00 0.00 59 1011.4
20260505013231 16 251 1.6 3.2 0.00 0.00 0.00 60 1011.3
20260505012729 16 260 3.2 4.8 0.00 0.00 0.00 61 1011.2
20260505012226 16 252 1.6 4.8 0.00 0.00 0.00 59 1011.1
20260505011721 17 273 0.0 1.6 0.00 0.00 0.00 59 1011.1
20260505011219 18 264 1.6 1.6 0.00 0.00 0.00 55 1011.0
20260505010714 17 289 3.2 4.8 0.00 0.00 0.00 54 1010.9
20260505010211 18 244 1.6 3.2 0.00 0.00 0.00 55 1010.8
20260505005707 17 256 1.6 3.2 0.00 0.00 0.00 54 1010.8
20260505005205 17 258 3.2 9.7 0.00 0.00 0.00 54 1010.7
20260505004702 17 263 3.2 3.2 0.00 0.00 0.00 55 1010.7
20260505004158 18 261 3.2 3.2 0.00 0.00 0.00 52 1010.7
20260505003655 18 265 1.6 3.2 0.00 0.00 0.00 54 1010.7
20260505003153 18 278 3.2 3.2 0.00 0.00 0.00 52 1010.6
20260505002649 19 277 1.6 3.2 0.00 0.00 0.00 50 1010.5
20260505002147 19 260 3.2 3.2 0.00 0.00 0.00 50 1010.4
20260505001644 20 260 3.2 3.2 0.00 0.00 0.00 48 1010.4
20260505001141 21 252 1.6 3.2 0.00 0.00 0.00 45 1010.5
20260505000638 21 251 1.6 1.6 0.00 0.00 0.00 44 1010.2
20260505000136 22 262 6.4 9.7 0.00 0.00 0.00 42 1010.2
20260504235632 22 267 4.8 6.4 0.00 0.00 0.00 42 1010.1
20260504235129 22 191 6.4 12.9 0.00 0.00 0.00 41 1010.1
20260504234626 22 233 9.7 14.5 0.00 0.00 0.00 41 1010.0
20260504234123 22 229 9.7 17.7 0.00 0.00 0.00 41 1010.1
20260504233619 22 225 4.8 11.3 0.00 0.00 0.00 41 1010.1
20260504233115 22 257 4.8 4.8 0.00 0.00 0.00 42 1010.1
20260504232613 22 248 4.8 9.7 0.00 0.00 0.00 41 1009.9
20260504232110 22 282 4.8 9.7 0.00 0.00 0.00 41 1010.0
20260504231606 23 279 1.6 9.7 0.00 0.00 0.00 41 1010.1
20260504231102 22 250 9.7 12.9 0.00 0.00 0.00 40 1010.0
20260504230558 23 224 6.4 9.7 0.00 0.00 0.00 42 1009.9
20260504230058 23 269 6.4 11.3 0.00 0.00 0.00 41 1009.8
20260504225555 23 348 1.6 4.8 0.00 0.00 0.00 42 1010.0
20260504225052 22 246 6.4 11.3 0.00 0.00 0.00 40 1009.8
20260504224548 23 200 3.2 6.4 0.00 0.00 0.00 41 1009.8
20260504224046 23 225 4.8 11.3 0.00 0.00 0.00 40 1009.9
20260504223542 23 232 8.0 16.1 0.00 0.00 0.00 38 1009.7
20260504223038 24 265 11.3 14.5 0.00 0.00 0.00 37 1010.0
20260504222535 24 175 4.8 16.1 0.00 0.00 0.00 40 1009.7
20260504222032 24 294 6.4 11.3 0.00 0.00 0.00 39 1009.9
20260504221530 23 306 9.7 12.9 0.00 0.00 0.00 39 1010.0
20260504221026 23 280 4.8 6.4 0.00 0.00 0.00 39 1009.9
20260504220523 23 246 4.8 6.4 0.00 0.00 0.00 39 1009.9
20260504220020 23 283 9.7 11.3 0.00 0.00 0.00 40 1009.6
20260504215516 23 269 4.8 9.7 0.00 0.00 0.00 39 1009.5
20260504215014 23 256 9.7 12.9 0.00 0.00 0.00 38 1009.7
20260504214510 23 228 3.2 11.3 0.00 0.00 0.00 39 1009.7
20260504214006 23 300 11.3 17.7 0.00 0.00 0.00 37 1009.6
20260504213502 23 240 8.0 11.3 0.00 0.00 0.00 39 1009.4
20260504213000 24 245 14.5 20.9 0.00 0.00 0.00 35 1009.6
20260504212455 25 261 11.3 14.5 0.00 0.00 0.00 38 1009.4
20260504211953 25 312 11.3 20.9 0.00 0.00 0.00 36 1009.5
20260504211449 24 285 6.4 16.1 0.00 0.00 0.00 37 1009.2
20260504210947 24 334 9.7 22.5 0.00 0.00 0.00 38 1009.4
20260504210444 25 201 8.0 14.5 0.00 0.00 0.00 36 1009.3
20260504205941 25 173 9.7 14.5 0.00 0.00 0.00 37 1009.4
20260504205438 24 284 8.0 16.1 0.00 0.00 0.00 36 1009.2
20260504204936 25 248 6.4 16.1 0.00 0.00 0.00 36 1009.3
20260504204434 25 290 6.4 16.1 0.00 0.00 0.00 37 1009.4
20260504203933 25 201 3.2 6.4 0.00 0.00 0.00 40 1009.3
20260504203431 24 219 4.8 14.5 0.00 0.00 0.00 39 1009.5
20260504202926 23 200 1.6 4.8 0.00 0.00 0.00 38 1009.5
20260504202423 23 209 1.6 4.8 0.00 0.00 0.00 43 1009.4
20260504201920 23 206 3.2 6.4 0.00 0.00 0.00 42 1009.6
20260504201417 24 242 8.0 11.3 0.00 0.00 0.00 37 1009.5
20260504200915 23 232 3.2 9.7 0.00 0.00 0.00 42 1009.5
20260504200411 23 196 4.8 11.3 0.00 0.00 0.00 38 1009.7
20260504195908 23 259 1.6 4.8 0.00 0.00 0.00 43 1009.8
20260504195404 23 219 4.8 6.4 0.00 0.00 0.00 39 1009.7
20260504194900 23 251 6.4 9.7 0.00 0.00 0.00 40 1010.1
20260504194356 23 192 4.8 11.3 0.00 0.00 0.00 39 1010.1
20260504193852 23 225 6.4 9.7 0.00 0.00 0.00 39 1010.0
20260504193350 23 173 3.2 6.4 0.00 0.00 0.00 39 1010.2
20260504192849 23 200 3.2 9.7 0.00 0.00 0.00 39 1010.2
20260504192346 23 182 8.0 14.5 0.00 0.00 0.00 39 1010.4
20260504191844 23 258 8.0 12.9 0.00 0.00 0.00 37 1010.4
20260504191342 23 173 6.4 11.3 0.00 0.00 0.00 39 1010.5
20260504190837 24 179 4.8 11.3 0.00 0.00 0.00 40 1010.6
20260504190333 24 158 3.2 11.3 0.00 0.00 0.00 37 1010.6
20260504185830 23 213 6.4 16.1 0.00 0.00 0.00 42 1010.9
20260504185327 23 201 6.4 11.3 0.00 0.00 0.00 38 1010.9
20260504184823 23 158 6.4 14.5 0.00 0.00 0.00 39 1010.8
20260504184319 23 171 9.7 14.5 0.00 0.00 0.00 36 1010.8
20260504183815 23 218 9.7 14.5 0.00 0.00 0.00 36 1011.2
20260504183312 22 301 6.4 16.1 0.00 0.00 0.00 47 1011.0
20260504182810 22 197 14.5 20.9 0.00 0.00 0.00 37 1011.0
20260504182307 22 202 8.0 12.9 0.00 0.00 0.00 38 1011.0
20260504181804 22 177 4.8 17.7 0.00 0.00 0.00 37 1011.2
20260504181301 22 342 4.8 11.3 0.00 0.00 0.00 40 1011.4
20260504180801 23 310 6.4 14.5 0.00 0.00 0.00 41 1011.2
20260504180259 23 302 14.5 17.7 0.00 0.00 0.00 38 1011.3
20260504175756 23 250 6.4 16.1 0.00 0.00 0.00 37 1011.2
20260504175253 23 308 6.4 9.7 0.00 0.00 0.00 39 1011.2
20260504174751 23 212 6.4 12.9 0.00 0.00 0.00 38 1011.1
20260504174248 23 218 6.4 16.1 0.00 0.00 0.00 36 1011.3
20260504173745 22 203 3.2 11.3 0.00 0.00 0.00 43 1011.7
20260504173242 22 181 6.4 11.3 0.00 0.00 0.00 36 1011.5
20260504172738 22 192 6.4 12.9 0.00 0.00 0.00 40 1011.8
20260504172235 22 141 3.2 14.5 0.00 0.00 0.00 38 1011.7
20260504171731 23 235 14.5 17.7 0.00 0.00 0.00 36 1011.8
20260504171228 22 0 0.0 3.2 0.00 0.00 0.00 36 1011.8
20260504170725 22 185 3.2 14.5 0.00 0.00 0.00 38 1011.8
20260504170223 22 261 6.4 11.3 0.00 0.00 0.00 39 1012.0
20260504160141 20 186 4.8 12.9 0.00 0.00 0.00 38 1013.2
20260504151108 19 218 3.2 12.9 0.00 0.00 0.00 39 1013.5
20260504150606 19 263 6.4 11.3 0.00 0.00 0.00 39 1013.6
20260504141032 18 264 6.4 12.9 0.00 0.00 0.00 40 1013.9
20260504140528 17 219 8.0 12.9 0.00 0.00 0.00 41 1014.0
20260504130452 14 203 3.2 4.8 0.00 0.00 0.00 56 1014.7